Regional Weather Roundup
Issued by NWS

Home | Current Version | Previous Version | Graphics & Text | Print | Product List | Glossary On
Versions: 1 2 3 4 5 6 7 8 9 10 11 12 13 14 15 16 17 18 19 20 21 22 23 24 25 26 27 28 29 30 31 32 33 34 35 36 37 38 39 40 41 42 43 44 45 46 47 48 49 50
446
ASUS43 KMKX 302111
RWRWI

WISCONSIN REGIONAL WEATHER ROUNDUP
NATIONAL WEATHER SERVICE MILWAUKEE/SULLIVAN WI
400 PM CDT THU MAR 30 2017

NOTE: "FAIR" INDICATES FEW OR NO CLOUDS BELOW 12,000 FEET WITH NO
SIGNIFICANT WEATHER AND/OR OBSTRUCTIONS TO VISIBILITY.

WIZ001-002-006>008-014>016-023>028-302200-
NORTHWEST WISCONSIN

CITY           SKY/WX    TMP DP  RH WIND       PRES   REMARKS
SUPERIOR ARPT  SUNNY     39  31  73 NE17G25   29.94F WCI  30
ASHLAND        CLOUDY    41  29  62 NE16      29.93F
HAYWARD        CLOUDY    47  30  51 N16G22    29.86F
SIREN          CLOUDY    49  32  51 CALM      29.85F
CUMBERLAND     CLOUDY    45  32  61 E7        29.83F
RICE LAKE      CLOUDY    47  32  56 NE3G10    29.85F
CHETEK         CLOUDY    45  33  61 E7        29.84F
LADYSMITH      CLOUDY    46  32  59 E9        29.86F
EAU CLAIRE     CLOUDY    44  34  67 E14G23    29.81F
MENOMONIE      CLOUDY    46  35  67 NE14      29.82F
NEW RICHMOND   CLOUDY    46  33  58 NE12G17   29.83S
OSCEOLA        CLOUDY    48  35  59 E10       29.86F
$$

WIZ003>005-009-010-017-018-302200-
NORTH CENTRAL WISCONSIN

CITY           SKY/WX    TMP DP  RH WIND       PRES   REMARKS
MANITOWISH WTR CLOUDY    44  30  59 E8        29.87F
ARBOR VITAE    CLOUDY    42  32  68 E8G17     29.86F
WOODRUFF       CLOUDY    42  32  68 E8G17     29.86F
RHINELANDER    CLOUDY    39  33  79 E13       29.87F WCI  31
EAGLE RIVER    DRIZZLE   38  31  76 E12       29.88F WCI  31
LAND O LAKES   CLOUDY    41  32  69 E10       29.91S
PHILLIPS       CLOUDY    44  32  62 E12G18    29.85F
TOMAHAWK       CLOUDY    39  32  75 E9G20     29.86F WCI  33
MEDFORD        CLOUDY    39  34  82 E13G23    29.81F WCI  31
MERRILL        CLOUDY    37  36  94 E13G18    29.85F WCI  29
$$

WIZ029-030-035-036-043>047-302200-
CENTRAL WISCONSIN

CITY           SKY/WX    TMP DP  RH WIND       PRES   REMARKS
WAUSAU         CLOUDY    36  34  92 NE15G22   29.81F WCI  27
MOSINEE        CLOUDY    37  36  93 NE18G24   29.83F WCI  27
MARSHFIELD     CLOUDY    37  34  89 NE17      29.78F FOG     WCI  27
STEVENS POINT  DRIZZLE   34  34 100 E14G20    29.81F WCI  25
WAUPACA        CLOUDY    38  35  90 NE12G17   29.82F WCI  30
WAUTOMA        LGT RAIN  35  34  96 NE22G28   29.76F WCI  23
WISC RAPIDS    CLOUDY    38  36  92 E20       29.80F WCI  28
CAMP DOUGLAS   DRIZZLE   37  36  93 NE14      29.76F WCI  29
$$

WIZ011>013-019>022-031-037>040-048>050-302200-
NORTHEAST WISCONSIN

CITY           SKY/WX    TMP DP  RH WIND       PRES   REMARKS
ANTIGO         CLOUDY    35  33  95 E14G23    29.86F FOG     WCI  25
SHAWANO        CLOUDY    37  34  88 NE13G21   29.88F WCI  29
OCONTO         CLOUDY    34  33  95 NE9G16    29.88F WCI  27
STURGEON BAY   FLURRIES  34  33  96 NE14      29.87F WCI  25
GREEN BAY      LGT RAIN  35  35 100 NE18G28   29.85F WCI  24
MANITOWOC      CLOUDY    38  36  92 NE12G18   29.82S WCI  30
APPLETON       CLOUDY    36  34  93 NE16G25   29.80F FOG     WCI  26
CLINTONVILLE   CLOUDY    36  34  93 NE14G20   29.85F WCI  27
OSHKOSH        CLOUDY    37  34  89 NE17      29.79F WCI  27
$$

WIZ032>034-041-042-053>061-302200-
SOUTHWEST WISCONSIN

CITY           SKY/WX    TMP DP  RH WIND       PRES   REMARKS
LA CROSSE      CLOUDY    42  35  76 E12       29.76F
SPARTA         CLOUDY    38  35  89 NE13G20   29.77F WCI  31
VIROQUA        CLOUDY    38  37  97 NE15      29.71F WCI  29
BOSCOBEL       CLOUDY    41  37  86 VRB7      29.70F
PRAIRIE DU CHI CLOUDY    40  39  97 NE8G17    29.68F WCI  34
PLATTEVILLE    CLOUDY    40  40 100 NE15      29.67R WCI  31
$$

WIZ056-057-062-063-064-067-068-302200-
SOUTH CENTRAL WISCONSIN

CITY           SKY/WX    TMP DP  RH WIND       PRES   REMARKS
REEDSBURG      CLOUDY    37  37  99 E12G18    29.73S WCI  29
BARABOO/DELLS  DRIZZLE   37  36  93 NE14G23   29.73R WCI  29
LONE ROCK      CLOUDY    41  37  86 NE16      29.69F FOG
MINERAL POINT  CLOUDY    41  41 100 NE18      29.66S
MADISON        CLOUDY    40  37  89 NE23G30   29.63F WCI  30
MIDDLETON      CLOUDY    41  40  95 NE18G30   29.65F
WATERTOWN      LGT RAIN  38  38 100 NE17G25   29.66F WCI  28
MONROE         CLOUDY    39  37  93 NE15      29.66R WCI  31
JANESVILLE     CLOUDY    41  41 100 NE13G24   29.65S
$$

WIZ051-052-058>065-066-070>072-302200-
SOUTHEAST WISCONSIN

CITY           SKY/WX    TMP DP  RH WIND       PRES   REMARKS
MILWAUKEE      LGT RAIN  40  37  89 NE14      29.72F FOG     WCI  32
WAUKESHA       RAIN      36  36 100 E20G28    29.72F FOG     WCI  25
MILWAUKEE/TIMM RAIN      37  36  93 NE12G18   29.76F FOG     WCI  30
RACINE         LGT RAIN  39  37  92 NE22      29.66F FOG     WCI  29
KENOSHA        CLOUDY    40  38  93 NE24G35   29.62F FOG     WCI  29
FOND DU LAC    HVY RAIN  39  35  86 NE12      29.79R FOG     WCI  32
SHEBOYGAN      LGT RAIN  38  35  89 NE20G28   29.80R FOG     WCI  28
WEST BEND      RAIN      37  37 100 NE13G18   29.77S WCI  29
JUNEAU         LGT RAIN  38  37  95 NE13      29.74F WCI  30
$$

LSZ147-162-302200-
LAKE SUPERIOR

STATION/POSITION TIME  TEMP    WIND        PRES    WAVE
                       AIR SEA DIR/SP/G            HT/PER
                 (UTC) (F)     (DEG/KT/KT) (MB)    (FT/S)
DEVILS ISLAND    2100   35      60/ 20/ 23 1015.2F
PORT WING        2040   36      30/ 21/ 24 1013.9S
SAXON HARBOR     2040   36     360/  6/  9 1013.5F
$$

LMZ867-665-643>646-302200-
LAKE MICHIGAN

STATION/POSITION TIME  TEMP    WIND        PRES    WAVE
                       AIR SEA DIR/SP/G            HT/PER
                 (UTC) (F)     (DEG/KT/KT) (MB)    (FT/S)
CHAMBERS ISLAND  2040   33      30/ 14/ 18 1012.9F
NORTHPORT PIER   2040   34      60/ 18/ 21 1013.2F
SISTER BAY       2006   35      80/ 10/ 18   N/A
KEWAUNEE LAKESHO 2048   36      30/ 14/ 21 1009.8F
SHEBOYGAN LAKESH 2100   38      30/ 18/ 20 1009.4R
PORT WASHINGTON  2030   38      40/ 13/ 16 1009.5S
MILWAUKEE LAKESH 2050   37      20/ 14/ 15   N/A
KENOSHA   LAKESH 2100   38      30/ 23/ 26 1004.1
$$

TC  - TEMPERATURE IN CELSIUS
VSB - VISIBILITY IN STATUTE MILES
WCI - WIND CHILL INDEX
HX  - HEAT INDEX





USA.gov is the U.S. government's official web portal to all federal, state and local government web resources and services.